Retour au catalogue

STARLINK-11719

ActifCommunicationsVLEO
NORAD 64071·PAYLOAD·🇺🇸 United States

Lancé May 21, 2025 depuis Cape Canaveral Space Force Station

Loading…

Prochains Passages (prochaines 24 heures)

TLE

FraisSource: CelesTrak SupGP

Époque: Sep 15, 2026, 03:24 UTC

1 64071C 25107H   26258.14215278 -.00098854  00000+0 -76757-3 0  2584
2 64071  43.0013  36.6588 0001624 267.9051 310.3983 15.70894327    14

Suivez STARLINK-11719 en temps réel avec AllMySat

Download on the App Store